This is the latest recevied weather packets stored in our database for station/object DH5DY-6. If no packets are shown the sender has not sent any weather packets the latest 10 day(s).
| Time | Temp. | Humidity | Pressure | Rain* | Wind** | Luminosity | Snow |
|---|---|---|---|---|---|---|---|
| 1787397035 | 16.67° C | 77% | 1016.2 hPa | 0 mm | - | 221 W/m² | - |
| 1787396435 | 16.67° C | 77% | 1016.2 hPa | 0 mm | - | 816 W/m² | - |
| 1787395837 | 16.67° C | 79% | 1016.3 hPa | 0 mm | - | 272 W/m² | - |
| 1787395235 | 16.11° C | 80% | 1016.3 hPa | 0 mm | - | 250 W/m² | - |
| 1787394635 | 16.11° C | 81% | 1016.2 hPa | 0 mm | - | 306 W/m² | - |
| 1787394035 | 15.56° C | 81% | 1016.2 hPa | 0 mm | - | 246 W/m² | - |
| 1787392834 | 15° C | 82% | 1016.3 hPa | 0 mm | - | 232 W/m² | - |
| 1787392235 | 15° C | 83% | 1016.2 hPa | 0 mm | - | 234 W/m² | - |
| 1787391635 | 15° C | 84% | 1016.2 hPa | 0 mm | - | 239 W/m² | - |
| 1787391035 | 15° C | 84% | 1016.1 hPa | 0 mm | - | 223 W/m² | - |
| 1787390434 | 15° C | 83% | 1015.9 hPa | 0 mm | - | 220 W/m² | - |
| 1787389836 | 15° C | 85% | 1015.8 hPa | 0 mm | - | 179 W/m² | - |
| 1787389236 | 14.44° C | 85% | 1015.7 hPa | 0 mm | - | 128 W/m² | - |
| 1787388635 | 14.44° C | 85% | 1015.5 hPa | 0 mm | - | 132 W/m² | - |
| 1787388036 | 14.44° C | 89% | 1015.4 hPa | 0 mm | - | 258 W/m² | - |
| 1787387434 | 13.89° C | 89% | 1015.3 hPa | 0 mm | - | 214 W/m² | - |
| 1787386835 | 13.89° C | 90% | 1015.3 hPa | 0 mm | - | 160 W/m² | - |
| 1787386234 | 13.33° C | 92% | 1015.3 hPa | 0 mm | - | 589 W/m² | - |
| 1787385634 | 13.33° C | 92% | 1015.3 hPa | 0 mm | - | 162 W/m² | - |
| 1787385035 | 13.33° C | 93% | 1015.3 hPa | 0 mm | - | 135 W/m² | - |
| 1787384434 | 13.33° C | 94% | 1015.2 hPa | 0 mm | - | 192 W/m² | - |
| 1787383834 | 12.78° C | 94% | 1015.1 hPa | 0 mm | - | 195 W/m² | - |
| 1787383235 | 12.78° C | 94% | 1014.8 hPa | 0 mm | - | 98 W/m² | - |
| 1787382634 | 12.78° C | 94% | 1014.7 hPa | 0 mm | - | 54 W/m² | - |
| 1787382035 | 12.78° C | 94% | 1014.5 hPa | 0 mm | - | 53 W/m² | - |
* Rain latest hour (hover to see other rain measurements)
** Current wind speed in m/s (hover to see current wind gust speed)